Time,TemperatureF,DewpointF,PressureIn,WindDirection,WindDirectionDegrees,WindSpeedMPH,WindSpeedGustMPH,Humidity,HourlyPrecipIn,Conditions,Clouds,dailyrainin,SoftwareType,DateUTC
2013-05-08 00:04:00,56.1,30.9,-100.00,North,-999,0.0,4.5,38,0.00,,,-99.99,FreeWX-Wi 1.01,2013-05-08 07:04:00,
2013-05-08 00:09:00,55.9,30.7,-100.00,North,-999,0.0,2.7,38,0.00,,,-99.99,FreeWX-Wi 1.01,2013-05-08 07:09:00,
2013-05-08 00:14:00,55.9,30.7,-100.00,North,-999,0.0,8.1,38,0.00,,,-99.99,FreeWX-Wi 1.01,2013-05-08 07:14:00,
2013-05-08 00:19:00,55.6,30.4,-100.00,North,-999,0.0,3.1,38,0.00,,,-99.99,FreeWX-Wi 1.01,2013-05-08 07:19:00,
2013-05-08 00:24:00,55.4,30.2,-100.00,North,-999,0.0,4.0,38,0.00,,,-99.99,FreeWX-Wi 1.01,2013-05-08 07:24:00,
2013-05-08 00:29:00,55.2,30.0,-100.00,North,-999,0.0,3.1,38,0.00,,,-99.99,FreeWX-Wi 1.01,2013-05-08 07:29:00,
2013-05-08 00:34:00,55.0,29.8,-100.00,North,-999,0.0,3.6,38,0.00,,,-99.99,FreeWX-Wi 1.01,2013-05-08 07:34:00,
2013-05-08 00:39:00,54.7,30.2,-100.00,North,-999,0.0,2.2,39,0.00,,,-99.99,FreeWX-Wi 1.01,2013-05-08 07:39:00,
2013-05-08 00:44:00,54.5,30.0,-100.00,North,-999,0.0,3.1,39,0.00,,,-99.99,FreeWX-Wi 1.01,2013-05-08 07:44:00,
2013-05-08 00:49:00,54.0,29.7,-100.00,North,-999,0.0,3.6,39,0.00,,,-99.99,FreeWX-Wi 1.01,2013-05-08 07:49:00,
2013-05-08 00:54:00,53.4,29.7,-100.00,North,-999,0.0,2.2,40,0.00,,,-99.99,FreeWX-Wi 1.01,2013-05-08 07:54:00,
2013-05-08 00:59:00,53.1,30.0,-100.00,North,-999,0.0,2.7,41,0.00,,,-99.99,FreeWX-Wi 1.01,2013-05-08 07:59:00,
2013-05-08 01:04:00,53.1,30.6,-100.00,North,-999,0.0,4.0,42,0.00,,,-99.99,FreeWX-Wi 1.01,2013-05-08 08:04:00,
2013-05-08 01:10:00,52.9,30.9,-100.00,North,-999,0.0,2.2,43,0.00,,,-99.99,FreeWX-Wi 1.01,2013-05-08 08:10:00,
2013-05-08 01:15:00,53.1,31.1,-100.00,North,-999,0.0,2.7,43,0.00,,,-99.99,FreeWX-Wi 1.01,2013-05-08 08:15:00,
2013-05-08 01:20:00,53.1,31.1,-100.00,North,-999,0.0,0.0,43,0.00,,,-99.99,FreeWX-Wi 1.01,2013-05-08 08:20:00,
2013-05-08 01:25:00,52.7,30.9,-100.00,North,-999,0.0,4.0,43,0.00,,,-99.99,FreeWX-Wi 1.01,2013-05-08 08:25:00,
2013-05-08 01:30:00,52.3,30.6,-100.00,North,-999,0.0,2.2,43,0.00,,,-99.99,FreeWX-Wi 1.01,2013-05-08 08:30:00,
2013-05-08 01:35:00,52.3,30.6,-100.00,North,-999,0.0,2.7,43,0.00,,,-99.99,FreeWX-Wi 1.01,2013-05-08 08:35:00,
2013-05-08 01:40:00,52.2,30.9,-100.00,North,-999,0.0,4.0,44,0.00,,,-99.99,FreeWX-Wi 1.01,2013-05-08 08:40:00,
2013-05-08 01:45:00,51.8,30.0,-100.00,North,-999,0.0,0.0,43,0.00,,,-99.99,FreeWX-Wi 1.01,2013-05-08 08:45:00,
2013-05-08 01:50:00,51.6,30.4,-100.00,North,-999,0.0,0.0,44,0.00,,,-99.99,FreeWX-Wi 1.01,2013-05-08 08:50:00,
2013-05-08 01:55:00,51.6,30.9,-100.00,North,-999,0.0,3.6,45,0.00,,,-99.99,FreeWX-Wi 1.01,2013-05-08 08:55:00,
2013-05-08 02:00:00,51.6,31.5,-100.00,North,-999,0.0,2.7,46,0.00,,,-99.99,FreeWX-Wi 1.01,2013-05-08 09:00:00,
2013-05-08 02:05:00,51.6,31.5,-100.00,North,-999,0.0,0.0,46,0.00,,,-99.99,FreeWX-Wi 1.01,2013-05-08 09:05:00,
2013-05-08 02:10:00,51.6,31.5,-100.00,North,-999,0.0,0.0,46,0.00,,,-99.99,FreeWX-Wi 1.01,2013-05-08 09:10:00,
2013-05-08 02:15:00,51.6,31.5,-100.00,North,-999,0.0,2.7,46,0.00,,,-99.99,FreeWX-Wi 1.01,2013-05-08 09:15:00,
2013-05-08 02:20:00,52.0,31.8,-100.00,North,-999,0.0,4.5,46,0.00,,,-99.99,FreeWX-Wi 1.01,2013-05-08 09:20:00,
2013-05-08 02:25:00,52.0,31.8,-100.00,North,-999,0.0,4.0,46,0.00,,,-99.99,FreeWX-Wi 1.01,2013-05-08 09:25:00,
2013-05-08 02:30:00,52.2,31.5,-100.00,North,-999,0.0,3.1,45,0.00,,,-99.99,FreeWX-Wi 1.01,2013-05-08 09:30:00,
2013-05-08 02:36:00,52.2,30.9,-100.00,North,-999,0.0,3.1,44,0.00,,,-99.99,FreeWX-Wi 1.01,2013-05-08 09:36:00,
2013-05-08 02:42:00,52.2,30.4,-100.00,West,259,1.0,4.0,43,0.00,,,-99.99,FreeWX-Wi 1.01,2013-05-08 09:42:00,
2013-05-08 02:47:00,52.2,30.4,-100.00,WSW,256,1.0,3.6,43,0.00,,,-99.99,FreeWX-Wi 1.01,2013-05-08 09:47:00,
2013-05-08 02:52:00,52.2,30.4,-100.00,WSW,248,1.0,3.1,43,0.00,,,-99.99,FreeWX-Wi 1.01,2013-05-08 09:52:00,
2013-05-08 02:57:00,52.0,30.2,-100.00,WSW,244,1.0,3.1,43,0.00,,,-99.99,FreeWX-Wi 1.01,2013-05-08 09:57:00,
2013-05-08 03:02:00,52.0,30.2,-100.00,WSW,243,1.0,4.9,43,0.00,,,-99.99,FreeWX-Wi 1.01,2013-05-08 10:02:00,
2013-05-08 03:07:00,52.0,30.2,-100.00,WSW,242,1.0,4.9,43,0.00,,,-99.99,FreeWX-Wi 1.01,2013-05-08 10:07:00,
2013-05-08 03:12:00,52.2,30.4,-100.00,WSW,239,1.0,3.1,43,0.00,,,-99.99,FreeWX-Wi 1.01,2013-05-08 10:12:00,
2013-05-08 03:17:00,51.8,30.0,-100.00,WSW,249,1.0,4.0,43,0.00,,,-99.99,FreeWX-Wi 1.01,2013-05-08 10:17:00,
2013-05-08 03:22:00,51.8,30.0,-100.00,WSW,254,1.0,5.4,43,0.00,,,-99.99,FreeWX-Wi 1.01,2013-05-08 10:22:00,
2013-05-08 03:27:00,51.6,29.8,-100.00,WSW,254,1.0,3.6,43,0.00,,,-99.99,FreeWX-Wi 1.01,2013-05-08 10:27:00,
2013-05-08 03:32:00,51.6,30.4,-100.00,WSW,256,1.0,4.0,44,0.00,,,-99.99,FreeWX-Wi 1.01,2013-05-08 10:32:00,
2013-05-08 03:37:00,51.6,30.4,-100.00,WSW,255,1.0,6.3,44,0.00,,,-99.99,FreeWX-Wi 1.01,2013-05-08 10:37:00,
2013-05-08 03:42:00,51.4,30.2,-100.00,WSW,252,1.0,5.4,44,0.00,,,-99.99,FreeWX-Wi 1.01,2013-05-08 10:42:00,
2013-05-08 03:47:00,51.6,30.9,-100.00,WSW,245,1.0,5.4,45,0.00,,,-99.99,FreeWX-Wi 1.01,2013-05-08 10:47:00,
2013-05-08 03:53:00,51.6,30.9,-100.00,WSW,243,1.0,4.0,45,0.00,,,-99.99,FreeWX-Wi 1.01,2013-05-08 10:53:00,
2013-05-08 03:58:00,51.6,30.9,-100.00,WSW,242,1.0,3.6,45,0.00,,,-99.99,FreeWX-Wi 1.01,2013-05-08 10:58:00,
2013-05-08 04:03:00,51.4,30.7,-100.00,WSW,239,1.0,4.5,45,0.00,,,-99.99,FreeWX-Wi 1.01,2013-05-08 11:03:00,
2013-05-08 04:08:00,51.4,30.2,-100.00,WSW,237,1.0,6.3,44,0.00,,,-99.99,FreeWX-Wi 1.01,2013-05-08 11:08:00,
2013-05-08 04:13:00,51.3,30.7,-100.00,WSW,237,1.0,3.6,45,0.00,,,-99.99,FreeWX-Wi 1.01,2013-05-08 11:13:00,
2013-05-08 04:18:00,51.4,30.7,-100.00,WSW,237,1.0,2.7,45,0.00,,,-99.99,FreeWX-Wi 1.01,2013-05-08 11:18:00,
2013-05-08 04:23:00,51.3,30.7,-100.00,North,-999,0.0,3.1,45,0.00,,,-99.99,FreeWX-Wi 1.01,2013-05-08 11:23:00,
2013-05-08 04:33:00,51.1,30.6,-100.00,North,-999,0.0,0.0,45,0.00,,,-99.99,FreeWX-Wi 1.01,2013-05-08 11:33:00,
2013-05-08 04:38:00,51.3,31.3,-100.00,North,-999,0.0,4.5,46,0.00,,,-99.99,FreeWX-Wi 1.01,2013-05-08 11:38:00,
2013-05-08 04:43:00,51.4,31.8,-100.00,North,-999,0.0,3.1,47,0.00,,,-99.99,FreeWX-Wi 1.01,2013-05-08 11:43:00,
2013-05-08 04:48:00,51.6,32.0,-100.00,North,-999,0.0,4.0,47,0.00,,,-99.99,FreeWX-Wi 1.01,2013-05-08 11:48:00,
2013-05-08 04:53:00,52.0,31.8,-100.00,North,-999,0.0,3.1,46,0.00,,,-99.99,FreeWX-Wi 1.01,2013-05-08 11:53:00,
2013-05-08 04:59:00,52.3,32.2,-100.00,North,-999,0.0,0.0,46,0.00,,,-99.99,FreeWX-Wi 1.01,2013-05-08 11:59:00,
2013-05-08 05:04:00,52.5,31.8,-100.00,North,-999,0.0,0.0,45,0.00,,,-99.99,FreeWX-Wi 1.01,2013-05-08 12:04:00,
2013-05-08 05:09:00,52.9,31.6,-100.00,North,-999,0.0,3.6,44,0.00,,,-99.99,FreeWX-Wi 1.01,2013-05-08 12:09:00,
2013-05-08 05:14:00,53.1,31.1,-100.00,North,-999,0.0,5.4,43,0.00,,,-99.99,FreeWX-Wi 1.01,2013-05-08 12:14:00,
2013-05-08 05:19:00,53.1,30.0,-100.00,North,-999,0.0,3.6,41,0.00,,,-99.99,FreeWX-Wi 1.01,2013-05-08 12:19:00,
2013-05-08 05:24:00,53.1,30.0,-100.00,North,-999,0.0,0.0,41,0.00,,,-99.99,FreeWX-Wi 1.01,2013-05-08 12:24:00,
2013-05-08 05:29:00,53.2,29.5,-100.00,North,-999,0.0,2.7,40,0.00,,,-99.99,FreeWX-Wi 1.01,2013-05-08 12:29:00,
2013-05-08 05:34:00,53.2,29.5,-100.00,North,-999,0.0,2.7,40,0.00,,,-99.99,FreeWX-Wi 1.01,2013-05-08 12:34:00,
2013-05-08 05:39:00,53.2,29.5,-100.00,North,-999,0.0,2.7,40,0.00,,,-99.99,FreeWX-Wi 1.01,2013-05-08 12:39:00,
2013-05-08 05:44:00,53.2,28.9,-100.00,North,-999,0.0,3.1,39,0.00,,,-99.99,FreeWX-Wi 1.01,2013-05-08 12:44:00,
2013-05-08 05:49:00,53.4,29.1,-100.00,North,-999,0.0,3.1,39,0.00,,,-99.99,FreeWX-Wi 1.01,2013-05-08 12:49:00,
2013-05-08 05:54:00,53.4,29.1,-100.00,North,-999,0.0,3.1,39,0.00,,,-99.99,FreeWX-Wi 1.01,2013-05-08 12:54:00,
2013-05-08 05:59:00,53.4,29.1,-100.00,North,-999,0.0,0.0,39,0.00,,,-99.99,FreeWX-Wi 1.01,2013-05-08 12:59:00,
2013-05-08 06:04:00,53.4,29.1,-100.00,North,-999,0.0,0.0,39,0.00,,,-99.99,FreeWX-Wi 1.01,2013-05-08 13:04:00,
2013-05-08 06:09:00,53.4,29.1,-100.00,North,-999,0.0,0.0,39,0.00,,,-99.99,FreeWX-Wi 1.01,2013-05-08 13:09:00,
2013-05-08 06:14:00,53.4,29.7,-100.00,North,-999,0.0,0.0,40,0.00,,,-99.99,FreeWX-Wi 1.01,2013-05-08 13:14:00,
2013-05-08 06:19:00,53.6,29.3,-100.00,North,-999,0.0,0.0,39,0.00,,,-99.99,FreeWX-Wi 1.01,2013-05-08 13:19:00,
2013-05-08 06:24:00,53.6,29.3,-100.00,North,-999,0.0,0.0,39,0.00,,,-99.99,FreeWX-Wi 1.01,2013-05-08 13:24:00,
2013-05-08 06:29:00,53.6,29.3,-100.00,North,-999,0.0,0.0,39,0.00,,,-99.99,FreeWX-Wi 1.01,2013-05-08 13:29:00,
2013-05-08 06:34:00,53.8,29.5,-100.00,North,-999,0.0,0.0,39,0.00,,,-99.99,FreeWX-Wi 1.01,2013-05-08 13:34:00,
2013-05-08 06:39:00,53.8,29.5,-100.00,North,-999,0.0,0.0,39,0.00,,,-99.99,FreeWX-Wi 1.01,2013-05-08 13:39:00,
2013-05-08 06:44:00,53.8,29.5,-100.00,North,-999,0.0,0.0,39,0.00,,,-99.99,FreeWX-Wi 1.01,2013-05-08 13:44:00,
2013-05-08 06:50:00,53.8,29.5,-100.00,North,-999,0.0,0.0,39,0.00,,,-99.99,FreeWX-Wi 1.01,2013-05-08 13:50:00,
2013-05-08 06:55:00,53.8,29.5,-100.00,North,-999,0.0,0.0,39,0.00,,,-99.99,FreeWX-Wi 1.01,2013-05-08 13:55:00,
2013-05-08 07:00:00,54.0,29.7,-100.00,North,-999,0.0,0.0,39,0.00,,,-99.99,FreeWX-Wi 1.01,2013-05-08 14:00:00,
2013-05-08 07:05:00,54.0,29.7,-100.00,North,-999,0.0,0.0,39,0.00,,,-99.99,FreeWX-Wi 1.01,2013-05-08 14:05:00,
2013-05-08 07:10:00,54.1,29.7,-100.00,North,-999,0.0,0.0,39,0.00,,,-99.99,FreeWX-Wi 1.01,2013-05-08 14:10:00,
2013-05-08 07:15:00,54.1,29.7,-100.00,North,-999,0.0,0.0,39,0.00,,,-99.99,FreeWX-Wi 1.01,2013-05-08 14:15:00,
2013-05-08 07:20:00,54.3,29.8,-100.00,North,-999,0.0,0.0,39,0.00,,,-99.99,FreeWX-Wi 1.01,2013-05-08 14:20:00,
2013-05-08 07:25:00,54.5,30.0,-100.00,North,-999,0.0,0.0,39,0.00,,,-99.99,FreeWX-Wi 1.01,2013-05-08 14:25:00,
2013-05-08 07:30:00,54.5,29.5,-100.00,North,-999,0.0,0.0,38,0.00,,,-99.99,FreeWX-Wi 1.01,2013-05-08 14:30:00,
2013-05-08 07:35:00,54.5,29.5,-100.00,North,-999,0.0,0.0,38,0.00,,,-99.99,FreeWX-Wi 1.01,2013-05-08 14:35:00,
2013-05-08 07:40:00,54.7,29.7,-100.00,North,-999,0.0,0.0,38,0.00,,,-99.99,FreeWX-Wi 1.01,2013-05-08 14:40:00,
2013-05-08 07:45:00,55.0,29.8,-100.00,North,-999,0.0,0.0,38,0.00,,,-99.99,FreeWX-Wi 1.01,2013-05-08 14:45:00,
2013-05-08 07:50:00,55.0,29.8,-100.00,North,-999,0.0,0.0,38,0.00,,,-99.99,FreeWX-Wi 1.01,2013-05-08 14:50:00,
2013-05-08 07:55:00,55.0,29.8,-100.00,North,-999,0.0,0.0,38,0.00,,,-99.99,FreeWX-Wi 1.01,2013-05-08 14:55:00,
2013-05-08 08:00:00,55.2,30.0,-100.00,North,-999,0.0,0.0,38,0.00,,,-99.99,FreeWX-Wi 1.01,2013-05-08 15:00:00,
2013-05-08 08:05:00,55.4,30.2,-100.00,North,-999,0.0,0.0,38,0.00,,,-99.99,FreeWX-Wi 1.01,2013-05-08 15:05:00,
2013-05-08 08:10:00,55.6,29.7,-100.00,North,-999,0.0,0.0,37,0.00,,,-99.99,FreeWX-Wi 1.01,2013-05-08 15:10:00,
2013-05-08 08:15:00,55.8,29.8,-100.00,North,-999,0.0,0.0,37,0.00,,,-99.99,FreeWX-Wi 1.01,2013-05-08 15:15:00,
2013-05-08 08:20:00,55.8,29.8,-100.00,North,-999,0.0,0.0,37,0.00,,,-99.99,FreeWX-Wi 1.01,2013-05-08 15:20:00,
2013-05-08 08:25:00,55.9,30.0,-100.00,North,-999,0.0,0.0,37,0.00,,,-99.99,FreeWX-Wi 1.01,2013-05-08 15:25:00,
2013-05-08 08:31:00,55.9,30.0,-100.00,North,-999,0.0,0.0,37,0.00,,,-99.99,FreeWX-Wi 1.01,2013-05-08 15:31:00,
2013-05-08 08:36:00,56.1,30.2,-100.00,North,-999,0.0,0.0,37,0.00,,,-99.99,FreeWX-Wi 1.01,2013-05-08 15:36:00,
2013-05-08 08:41:00,56.1,30.2,-100.00,North,-999,0.0,0.0,37,0.00,,,-99.99,FreeWX-Wi 1.01,2013-05-08 15:41:00,
2013-05-08 08:46:00,56.1,30.2,-100.00,North,-999,0.0,0.0,37,0.00,,,-99.99,FreeWX-Wi 1.01,2013-05-08 15:46:00,
2013-05-08 08:51:00,56.1,30.2,-100.00,North,-999,0.0,0.0,37,0.00,,,-99.99,FreeWX-Wi 1.01,2013-05-08 15:51:00,
2013-05-08 08:56:00,56.3,30.4,-100.00,North,-999,0.0,0.0,37,0.00,,,-99.99,FreeWX-Wi 1.01,2013-05-08 15:56:00,
2013-05-08 09:01:00,56.3,30.4,-100.00,North,-999,0.0,0.0,37,0.00,,,-99.99,FreeWX-Wi 1.01,2013-05-08 16:01:00,
2013-05-08 09:06:00,56.5,30.6,-100.00,North,-999,0.0,0.0,37,0.00,,,-99.99,FreeWX-Wi 1.01,2013-05-08 16:06:00,
2013-05-08 09:11:00,56.7,30.7,-100.00,North,-999,0.0,0.0,37,0.00,,,-99.99,FreeWX-Wi 1.01,2013-05-08 16:11:00,
2013-05-08 09:16:00,56.7,30.7,-100.00,North,-999,0.0,0.0,37,0.00,,,-99.99,FreeWX-Wi 1.01,2013-05-08 16:16:00,
2013-05-08 09:21:00,56.8,30.9,-100.00,North,-999,0.0,0.0,37,0.00,,,-99.99,FreeWX-Wi 1.01,2013-05-08 16:21:00,
2013-05-08 09:26:00,56.8,30.2,-100.00,North,-999,0.0,0.0,36,0.00,,,-99.99,FreeWX-Wi 1.01,2013-05-08 16:26:00,
2013-05-08 09:31:00,56.8,30.9,-100.00,North,-999,0.0,0.0,37,0.00,,,-99.99,FreeWX-Wi 1.01,2013-05-08 16:31:00,
2013-05-08 09:36:00,57.2,30.6,-100.00,North,-999,0.0,0.0,36,0.00,,,-99.99,FreeWX-Wi 1.01,2013-05-08 16:36:00,
2013-05-08 09:41:00,57.4,30.7,-100.00,North,-999,0.0,0.0,36,0.00,,,-99.99,FreeWX-Wi 1.01,2013-05-08 16:41:00,
2013-05-08 09:46:00,57.6,30.7,-100.00,North,-999,0.0,0.0,36,0.00,,,-99.99,FreeWX-Wi 1.01,2013-05-08 16:46:00,
2013-05-08 09:51:00,57.9,31.1,-100.00,North,-999,0.0,0.0,36,0.00,,,-99.99,FreeWX-Wi 1.01,2013-05-08 16:51:00,
2013-05-08 09:56:00,58.1,31.3,-100.00,North,-999,0.0,0.0,36,0.00,,,-99.99,FreeWX-Wi 1.01,2013-05-08 16:56:00,
2013-05-08 10:01:00,58.1,31.3,-100.00,North,-999,0.0,0.0,36,0.00,,,-99.99,FreeWX-Wi 1.01,2013-05-08 17:01:00,
2013-05-08 10:07:00,58.1,31.3,-100.00,North,-999,0.0,0.0,36,0.00,,,-99.99,FreeWX-Wi 1.01,2013-05-08 17:07:00,
2013-05-08 10:12:00,58.1,31.3,-100.00,North,-999,0.0,0.0,36,0.00,,,-99.99,FreeWX-Wi 1.01,2013-05-08 17:12:00,
2013-05-08 10:17:00,58.5,31.6,-100.00,North,-999,0.0,0.0,36,0.00,,,-99.99,FreeWX-Wi 1.01,2013-05-08 17:17:00,
2013-05-08 10:22:00,58.5,31.6,-100.00,North,-999,0.0,0.0,36,0.00,,,-99.99,FreeWX-Wi 1.01,2013-05-08 17:22:00,
2013-05-08 10:27:00,58.5,31.6,-100.00,North,-999,0.0,0.0,36,0.00,,,-99.99,FreeWX-Wi 1.01,2013-05-08 17:27:00,
2013-05-08 10:32:00,58.8,32.0,-100.00,North,-999,0.0,0.0,36,0.00,,,-99.99,FreeWX-Wi 1.01,2013-05-08 17:32:00,
2013-05-08 10:37:00,59.4,31.6,-100.00,North,-999,0.0,0.0,35,0.00,,,-99.99,FreeWX-Wi 1.01,2013-05-08 17:37:00,
2013-05-08 10:42:00,59.7,32.0,-100.00,North,-999,0.0,0.0,35,0.00,,,-99.99,FreeWX-Wi 1.01,2013-05-08 17:42:00,
2013-05-08 10:47:00,59.7,32.0,-100.00,North,-999,0.0,0.0,35,0.00,,,-99.99,FreeWX-Wi 1.01,2013-05-08 17:47:00,
2013-05-08 10:52:00,60.1,32.4,-100.00,North,-999,0.0,0.0,35,0.00,,,-99.99,FreeWX-Wi 1.01,2013-05-08 17:52:00,
2013-05-08 10:57:00,60.4,32.7,-100.00,North,-999,0.0,0.0,35,0.00,,,-99.99,FreeWX-Wi 1.01,2013-05-08 17:57:00,
2013-05-08 11:02:00,60.3,32.5,-100.00,North,-999,0.0,0.0,35,0.00,,,-99.99,FreeWX-Wi 1.01,2013-05-08 18:02:00,
2013-05-08 11:07:00,59.9,32.2,-100.00,North,-999,0.0,0.0,35,0.00,,,-99.99,FreeWX-Wi 1.01,2013-05-08 18:07:00,
2013-05-08 11:12:00,59.9,32.2,-100.00,North,-999,0.0,0.0,35,0.00,,,-99.99,FreeWX-Wi 1.01,2013-05-08 18:12:00,
2013-05-08 11:17:00,59.9,32.2,-100.00,North,-999,0.0,0.0,35,0.00,,,-99.99,FreeWX-Wi 1.01,2013-05-08 18:17:00,
2013-05-08 11:22:00,59.9,32.2,-100.00,North,-999,0.0,0.0,35,0.00,,,-99.99,FreeWX-Wi 1.01,2013-05-08 18:22:00,
2013-05-08 11:27:00,60.3,32.5,-100.00,North,-999,0.0,0.0,35,0.00,,,-99.99,FreeWX-Wi 1.01,2013-05-08 18:27:00,
2013-05-08 11:32:00,60.6,32.9,-100.00,North,-999,0.0,0.0,35,0.00,,,-99.99,FreeWX-Wi 1.01,2013-05-08 18:32:00,
2013-05-08 11:37:00,60.8,32.2,-100.00,North,-999,0.0,0.0,34,0.00,,,-99.99,FreeWX-Wi 1.01,2013-05-08 18:37:00,
2013-05-08 11:42:00,60.6,32.9,-100.00,North,-999,0.0,0.0,35,0.00,,,-99.99,FreeWX-Wi 1.01,2013-05-08 18:42:00,
2013-05-08 11:47:00,60.6,32.9,-100.00,North,-999,0.0,0.0,35,0.00,,,-99.99,FreeWX-Wi 1.01,2013-05-08 18:47:00,
2013-05-08 11:52:00,60.8,32.2,-100.00,North,-999,0.0,0.0,34,0.00,,,-99.99,FreeWX-Wi 1.01,2013-05-08 18:52:00,
2013-05-08 11:58:00,61.0,32.4,-100.00,North,-999,0.0,0.0,34,0.00,,,-99.99,FreeWX-Wi 1.01,2013-05-08 18:58:00,
2013-05-08 12:03:00,61.0,32.4,-100.00,North,-999,0.0,0.0,34,0.00,,,-99.99,FreeWX-Wi 1.01,2013-05-08 19:03:00,
2013-05-08 12:08:00,61.2,32.5,-100.00,North,-999,0.0,0.0,34,0.00,,,-99.99,FreeWX-Wi 1.01,2013-05-08 19:08:00,
2013-05-08 12:13:00,61.0,32.4,-100.00,North,-999,0.0,0.0,34,0.00,,,-99.99,FreeWX-Wi 1.01,2013-05-08 19:13:00,
2013-05-08 12:18:00,60.6,32.9,-100.00,North,-999,0.0,0.0,35,0.00,,,-99.99,FreeWX-Wi 1.01,2013-05-08 19:18:00,
2013-05-08 12:23:00,60.4,32.7,-100.00,North,-999,0.0,0.0,35,0.00,,,-99.99,FreeWX-Wi 1.01,2013-05-08 19:23:00,
2013-05-08 12:28:00,60.6,32.9,-100.00,North,-999,0.0,0.0,35,0.00,,,-99.99,FreeWX-Wi 1.01,2013-05-08 19:28:00,
2013-05-08 12:33:00,61.0,32.4,-100.00,North,-999,0.0,0.0,34,0.00,,,-99.99,FreeWX-Wi 1.01,2013-05-08 19:33:00,
2013-05-08 12:38:00,60.8,32.2,-100.00,North,-999,0.0,0.0,34,0.00,,,-99.99,FreeWX-Wi 1.01,2013-05-08 19:38:00,
2013-05-08 12:43:00,61.0,32.4,-100.00,North,-999,0.0,0.0,34,0.00,,,-99.99,FreeWX-Wi 1.01,2013-05-08 19:43:00,
2013-05-08 12:48:00,61.5,32.9,-100.00,North,-999,0.0,0.0,34,0.00,,,-99.99,FreeWX-Wi 1.01,2013-05-08 19:48:00,
2013-05-08 12:53:00,61.9,33.3,-100.00,North,-999,0.0,0.0,34,0.00,,,-99.99,FreeWX-Wi 1.01,2013-05-08 19:53:00,
2013-05-08 12:58:00,61.5,32.9,-100.00,North,-999,0.0,0.0,34,0.00,,,-99.99,FreeWX-Wi 1.01,2013-05-08 19:58:00,
2013-05-08 13:03:00,61.7,33.1,-100.00,North,-999,0.0,0.0,34,0.00,,,-99.99,FreeWX-Wi 1.01,2013-05-08 20:03:00,
2013-05-08 13:08:00,62.2,33.4,-100.00,North,-999,0.0,0.0,34,0.00,,,-99.99,FreeWX-Wi 1.01,2013-05-08 20:08:00,
2013-05-08 13:13:00,62.6,33.8,-100.00,North,-999,0.0,0.0,34,0.00,,,-99.99,FreeWX-Wi 1.01,2013-05-08 20:13:00,
2013-05-08 13:18:00,62.4,33.6,-100.00,North,-999,0.0,0.0,34,0.00,,,-99.99,FreeWX-Wi 1.01,2013-05-08 20:18:00,
2013-05-08 13:23:00,62.6,33.8,-100.00,North,-999,0.0,0.0,34,0.00,,,-99.99,FreeWX-Wi 1.01,2013-05-08 20:23:00,
2013-05-08 13:28:00,63.1,34.3,-100.00,North,-999,0.0,0.0,34,0.00,,,-99.99,FreeWX-Wi 1.01,2013-05-08 20:28:00,
2013-05-08 13:33:00,63.1,34.3,-100.00,North,-999,0.0,0.0,34,0.00,,,-99.99,FreeWX-Wi 1.01,2013-05-08 20:33:00,
2013-05-08 13:38:00,63.0,34.2,-100.00,North,-999,0.0,0.0,34,0.00,,,-99.99,FreeWX-Wi 1.01,2013-05-08 20:38:00,
2013-05-08 13:43:00,63.0,34.2,-100.00,North,-999,0.0,0.0,34,0.00,,,-99.99,FreeWX-Wi 1.01,2013-05-08 20:43:00,
2013-05-08 13:48:00,63.1,34.3,-100.00,North,-999,0.0,0.0,34,0.00,,,-99.99,FreeWX-Wi 1.01,2013-05-08 20:48:00,
2013-05-08 13:53:00,64.2,35.2,-100.00,North,-999,0.0,0.0,34,0.00,,,-99.99,FreeWX-Wi 1.01,2013-05-08 20:53:00,
2013-05-08 13:58:00,64.8,35.1,-100.00,North,-999,0.0,0.0,33,0.00,,,-99.99,FreeWX-Wi 1.01,2013-05-08 20:58:00,
2013-05-08 14:04:00,64.2,35.2,-100.00,North,-999,0.0,0.0,34,0.00,,,-99.99,FreeWX-Wi 1.01,2013-05-08 21:04:00,
2013-05-08 14:09:00,65.1,35.2,-100.00,North,-999,0.0,0.0,33,0.00,,,-99.99,FreeWX-Wi 1.01,2013-05-08 21:09:00,
2013-05-08 14:14:00,65.3,35.4,-100.00,North,-999,0.0,0.0,33,0.00,,,-99.99,FreeWX-Wi 1.01,2013-05-08 21:14:00,
2013-05-08 14:19:00,65.3,35.4,-100.00,North,-999,0.0,0.0,33,0.00,,,-99.99,FreeWX-Wi 1.01,2013-05-08 21:19:00,
2013-05-08 14:24:00,65.8,36.0,-100.00,North,-999,0.0,0.0,33,0.00,,,-99.99,FreeWX-Wi 1.01,2013-05-08 21:24:00,
2013-05-08 14:29:00,66.6,36.5,-100.00,North,-999,0.0,0.0,33,0.00,,,-99.99,FreeWX-Wi 1.01,2013-05-08 21:29:00,
2013-05-08 14:34:00,66.9,36.9,-100.00,North,-999,0.0,0.0,33,0.00,,,-99.99,FreeWX-Wi 1.01,2013-05-08 21:34:00,
2013-05-08 14:39:00,67.8,37.6,-100.00,North,-999,0.0,0.0,33,0.00,,,-99.99,FreeWX-Wi 1.01,2013-05-08 21:39:00,
2013-05-08 14:44:00,68.5,38.3,-100.00,North,-999,0.0,0.0,33,0.00,,,-99.99,FreeWX-Wi 1.01,2013-05-08 21:44:00,
2013-05-08 14:49:00,68.9,38.7,-100.00,North,-999,0.0,0.0,33,0.00,,,-99.99,FreeWX-Wi 1.01,2013-05-08 21:49:00,
2013-05-08 14:54:00,69.4,39.0,-100.00,North,-999,0.0,0.0,33,0.00,,,-99.99,FreeWX-Wi 1.01,2013-05-08 21:54:00,
2013-05-08 14:59:00,69.6,39.2,-100.00,North,-999,0.0,0.0,33,0.00,,,-99.99,FreeWX-Wi 1.01,2013-05-08 21:59:00,
2013-05-08 15:04:00,70.5,39.2,-100.00,North,-999,0.0,0.0,32,0.00,,,-99.99,FreeWX-Wi 1.01,2013-05-08 22:04:00,
2013-05-08 15:09:00,72.5,41.0,-100.00,North,-999,0.0,0.0,32,0.00,,,-99.99,FreeWX-Wi 1.01,2013-05-08 22:09:00,
2013-05-08 15:14:00,77.2,44.2,-100.00,North,-999,0.0,0.0,31,0.00,,,-99.99,FreeWX-Wi 1.01,2013-05-08 22:14:00,
2013-05-08 15:19:00,80.8,46.4,-100.00,North,-999,0.0,0.0,30,0.00,,,-99.99,FreeWX-Wi 1.01,2013-05-08 22:19:00,
2013-05-08 15:24:00,80.8,46.4,-100.00,North,-999,0.0,0.0,30,0.00,,,-99.99,FreeWX-Wi 1.01,2013-05-08 22:24:00,
2013-05-08 15:29:00,79.7,45.5,-100.00,North,-999,0.0,0.0,30,0.00,,,-99.99,FreeWX-Wi 1.01,2013-05-08 22:29:00,
2013-05-08 15:34:00,80.6,46.2,-100.00,North,-999,0.0,0.0,30,0.00,,,-99.99,FreeWX-Wi 1.01,2013-05-08 22:34:00,
2013-05-08 15:39:00,81.0,46.6,-100.00,North,-999,0.0,0.0,30,0.00,,,-99.99,FreeWX-Wi 1.01,2013-05-08 22:39:00,
2013-05-08 15:44:00,80.1,45.9,-100.00,North,-999,0.0,0.0,30,0.00,,,-99.99,FreeWX-Wi 1.01,2013-05-08 22:44:00,
2013-05-08 15:49:00,80.6,46.2,-100.00,North,-999,0.0,0.0,30,0.00,,,-99.99,FreeWX-Wi 1.01,2013-05-08 22:49:00,
2013-05-08 15:55:00,80.6,46.2,-100.00,North,-999,0.0,0.0,30,0.00,,,-99.99,FreeWX-Wi 1.01,2013-05-08 22:55:00,
2013-05-08 16:00:00,80.6,46.2,-100.00,North,-999,0.0,0.0,30,0.00,,,-99.99,FreeWX-Wi 1.01,2013-05-08 23:00:00,
2013-05-08 16:05:00,80.4,46.0,-100.00,North,-999,0.0,0.0,30,0.00,,,-99.99,FreeWX-Wi 1.01,2013-05-08 23:05:00,
2013-05-08 16:10:00,80.1,45.9,-100.00,North,-999,0.0,0.0,30,0.00,,,-99.99,FreeWX-Wi 1.01,2013-05-08 23:10:00,
2013-05-08 16:15:00,78.6,45.5,-100.00,North,-999,0.0,0.0,31,0.00,,,-99.99,FreeWX-Wi 1.01,2013-05-08 23:15:00,
2013-05-08 16:20:00,74.1,41.5,-100.00,North,-999,0.0,0.0,31,0.00,,,-99.99,FreeWX-Wi 1.01,2013-05-08 23:20:00,
2013-05-08 16:25:00,71.6,40.1,-100.00,North,-999,0.0,0.0,32,0.00,,,-99.99,FreeWX-Wi 1.01,2013-05-08 23:25:00,
2013-05-08 16:30:00,70.0,38.8,-100.00,North,-999,0.0,0.0,32,0.00,,,-99.99,FreeWX-Wi 1.01,2013-05-08 23:30:00,
2013-05-08 16:35:00,68.5,38.3,-100.00,North,-999,0.0,0.0,33,0.00,,,-99.99,FreeWX-Wi 1.01,2013-05-08 23:35:00,
2013-05-08 16:40:00,68.0,37.8,-100.00,North,-999,0.0,0.0,33,0.00,,,-99.99,FreeWX-Wi 1.01,2013-05-08 23:40:00,
2013-05-08 16:45:00,67.6,37.6,-100.00,North,-999,0.0,0.0,33,0.00,,,-99.99,FreeWX-Wi 1.01,2013-05-08 23:45:00,
2013-05-08 16:50:00,67.6,37.6,-100.00,North,-999,0.0,0.0,33,0.00,,,-99.99,FreeWX-Wi 1.01,2013-05-08 23:50:00,
2013-05-08 16:55:00,67.5,37.4,-100.00,North,-999,0.0,0.0,33,0.00,,,-99.99,FreeWX-Wi 1.01,2013-05-08 23:55:00,
2013-05-08 17:00:00,67.3,37.2,-100.00,North,-999,0.0,0.0,33,0.00,,,-99.99,FreeWX-Wi 1.01,2013-05-09 00:00:00,
2013-05-08 17:05:00,67.3,37.2,-100.00,North,-999,0.0,0.0,33,0.00,,,-99.99,FreeWX-Wi 1.01,2013-05-09 00:05:00,
2013-05-08 17:10:00,71.4,40.1,-100.00,North,-999,0.0,0.0,32,0.00,,,-99.99,FreeWX-Wi 1.01,2013-05-09 00:10:00,
2013-05-08 17:15:00,75.7,43.0,-100.00,North,-999,0.0,0.0,31,0.00,,,-99.99,FreeWX-Wi 1.01,2013-05-09 00:15:00,
2013-05-08 17:20:00,78.4,45.3,-100.00,North,-999,0.0,0.0,31,0.00,,,-99.99,FreeWX-Wi 1.01,2013-05-09 00:20:00,
2013-05-08 17:25:00,79.3,45.1,-100.00,North,-999,0.0,0.0,30,0.00,,,-99.99,FreeWX-Wi 1.01,2013-05-09 00:25:00,
2013-05-08 17:30:00,79.5,45.3,-100.00,North,-999,0.0,0.0,30,0.00,,,-99.99,FreeWX-Wi 1.01,2013-05-09 00:30:00,
2013-05-08 17:35:00,79.9,45.7,-100.00,North,-999,0.0,0.0,30,0.00,,,-99.99,FreeWX-Wi 1.01,2013-05-09 00:35:00,
2013-05-08 17:40:00,80.2,46.0,-100.00,North,-999,0.0,0.0,30,0.00,,,-99.99,FreeWX-Wi 1.01,2013-05-09 00:40:00,
2013-05-08 17:45:00,81.1,46.8,-100.00,North,-999,0.0,0.0,30,0.00,,,-99.99,FreeWX-Wi 1.01,2013-05-09 00:45:00,
2013-05-08 17:50:00,81.3,46.9,-100.00,North,-999,0.0,0.0,30,0.00,,,-99.99,FreeWX-Wi 1.01,2013-05-09 00:50:00,
2013-05-08 17:56:00,81.3,46.9,-100.00,North,-999,0.0,0.0,30,0.00,,,-99.99,FreeWX-Wi 1.01,2013-05-09 00:56:00,
2013-05-08 18:01:00,80.2,46.0,-100.00,North,-999,0.0,0.0,30,0.00,,,-99.99,FreeWX-Wi 1.01,2013-05-09 01:01:00,
2013-05-08 18:06:00,76.6,43.7,-100.00,North,-999,0.0,0.0,31,0.00,,,-99.99,FreeWX-Wi 1.01,2013-05-09 01:06:00,
2013-05-08 18:11:00,71.8,40.3,-100.00,North,-999,0.0,0.0,32,0.00,,,-99.99,FreeWX-Wi 1.01,2013-05-09 01:11:00,
2013-05-08 18:16:00,69.1,38.8,-100.00,North,-999,0.0,0.0,33,0.00,,,-99.99,FreeWX-Wi 1.01,2013-05-09 01:16:00,
2013-05-08 18:21:00,67.3,37.2,-100.00,North,-999,0.0,0.0,33,0.00,,,-99.99,FreeWX-Wi 1.01,2013-05-09 01:21:00,
2013-05-08 18:26:00,66.4,36.3,-100.00,North,-999,0.0,0.0,33,0.00,,,-99.99,FreeWX-Wi 1.01,2013-05-09 01:26:00,
2013-05-08 18:31:00,65.5,35.6,-100.00,North,-999,0.0,0.0,33,0.00,,,-99.99,FreeWX-Wi 1.01,2013-05-09 01:31:00,
2013-05-08 18:36:00,64.9,35.1,-100.00,North,-999,0.0,0.0,33,0.00,,,-99.99,FreeWX-Wi 1.01,2013-05-09 01:36:00,
2013-05-08 18:41:00,64.2,35.2,-100.00,North,-999,0.0,0.0,34,0.00,,,-99.99,FreeWX-Wi 1.01,2013-05-09 01:41:00,
2013-05-08 18:46:00,63.9,34.9,-100.00,North,-999,0.0,0.0,34,0.00,,,-99.99,FreeWX-Wi 1.01,2013-05-09 01:46:00,
2013-05-08 18:51:00,63.7,34.7,-100.00,North,-999,0.0,0.0,34,0.00,,,-99.99,FreeWX-Wi 1.01,2013-05-09 01:51:00,
2013-05-08 18:56:00,63.5,34.7,-100.00,North,-999,0.0,0.0,34,0.00,,,-99.99,FreeWX-Wi 1.01,2013-05-09 01:56:00,
2013-05-08 19:01:00,63.3,34.5,-100.00,North,-999,0.0,0.0,34,0.00,,,-99.99,FreeWX-Wi 1.01,2013-05-09 02:01:00,
2013-05-08 19:06:00,63.1,34.3,-100.00,North,-999,0.0,0.0,34,0.00,,,-99.99,FreeWX-Wi 1.01,2013-05-09 02:06:00,
2013-05-08 19:11:00,63.0,34.2,-100.00,North,-999,0.0,0.0,34,0.00,,,-99.99,FreeWX-Wi 1.01,2013-05-09 02:11:00,
2013-05-08 19:16:00,62.8,34.0,-100.00,North,-999,0.0,0.0,34,0.00,,,-99.99,FreeWX-Wi 1.01,2013-05-09 02:16:00,
2013-05-08 19:21:00,62.6,33.8,-100.00,North,-999,0.0,0.0,34,0.00,,,-99.99,FreeWX-Wi 1.01,2013-05-09 02:21:00,
2013-05-08 19:26:00,62.2,33.4,-100.00,North,-999,0.0,0.0,34,0.00,,,-99.99,FreeWX-Wi 1.01,2013-05-09 02:26:00,
2013-05-08 19:31:00,61.9,33.3,-100.00,North,-999,0.0,0.0,34,0.00,,,-99.99,FreeWX-Wi 1.01,2013-05-09 02:31:00,
2013-05-08 19:36:00,61.7,33.8,-100.00,North,-999,0.0,0.0,35,0.00,,,-99.99,FreeWX-Wi 1.01,2013-05-09 02:36:00,
2013-05-08 19:41:00,61.5,33.6,-100.00,North,-999,0.0,0.0,35,0.00,,,-99.99,FreeWX-Wi 1.01,2013-05-09 02:41:00,
2013-05-08 19:46:00,61.2,33.3,-100.00,North,-999,0.0,0.0,35,0.00,,,-99.99,FreeWX-Wi 1.01,2013-05-09 02:46:00,
2013-05-08 19:51:00,61.0,33.1,-100.00,North,-999,0.0,0.0,35,0.00,,,-99.99,FreeWX-Wi 1.01,2013-05-09 02:51:00,
2013-05-08 19:56:00,60.6,32.9,-100.00,North,-999,0.0,0.0,35,0.00,,,-99.99,FreeWX-Wi 1.01,2013-05-09 02:56:00,
2013-05-08 20:01:00,60.4,32.7,-100.00,North,-999,0.0,0.0,35,0.00,,,-99.99,FreeWX-Wi 1.01,2013-05-09 03:01:00,
2013-05-08 20:06:00,60.1,33.1,-100.00,North,-999,0.0,0.0,36,0.00,,,-99.99,FreeWX-Wi 1.01,2013-05-09 03:06:00,
2013-05-08 20:11:00,59.9,32.9,-100.00,North,-999,0.0,0.0,36,0.00,,,-99.99,FreeWX-Wi 1.01,2013-05-09 03:11:00,
2013-05-08 20:16:00,59.7,32.7,-100.00,North,-999,0.0,0.0,36,0.00,,,-99.99,FreeWX-Wi 1.01,2013-05-09 03:16:00,
2013-05-08 20:21:00,59.4,32.4,-100.00,North,-999,0.0,0.0,36,0.00,,,-99.99,FreeWX-Wi 1.01,2013-05-09 03:21:00,
2013-05-08 20:26:00,58.6,31.8,-100.00,North,-999,0.0,0.0,36,0.00,,,-99.99,FreeWX-Wi 1.01,2013-05-09 03:26:00,
2013-05-08 20:31:00,58.3,32.2,-100.00,North,-999,0.0,0.0,37,0.00,,,-99.99,FreeWX-Wi 1.01,2013-05-09 03:31:00,
2013-05-08 20:36:00,58.1,32.0,-100.00,North,-999,0.0,0.0,37,0.00,,,-99.99,FreeWX-Wi 1.01,2013-05-09 03:36:00,
2013-05-08 20:41:00,57.9,31.8,-100.00,North,-999,0.0,0.0,37,0.00,,,-99.99,FreeWX-Wi 1.01,2013-05-09 03:41:00,
2013-05-08 20:47:00,57.6,31.5,-100.00,North,-999,0.0,0.0,37,0.00,,,-99.99,FreeWX-Wi 1.01,2013-05-09 03:47:00,
2013-05-08 20:52:00,57.6,31.5,-100.00,North,-999,0.0,0.0,37,0.00,,,-99.99,FreeWX-Wi 1.01,2013-05-09 03:52:00,
2013-05-08 20:57:00,57.2,31.8,-100.00,North,-999,0.0,0.0,38,0.00,,,-99.99,FreeWX-Wi 1.01,2013-05-09 03:57:00,
2013-05-08 21:02:00,57.2,31.8,-100.00,North,-999,0.0,0.0,38,0.00,,,-99.99,FreeWX-Wi 1.01,2013-05-09 04:02:00,
2013-05-08 21:07:00,56.8,31.5,-100.00,North,-999,0.0,0.0,38,0.00,,,-99.99,FreeWX-Wi 1.01,2013-05-09 04:07:00,
2013-05-08 21:12:00,56.7,31.3,-100.00,North,-999,0.0,0.0,38,0.00,,,-99.99,FreeWX-Wi 1.01,2013-05-09 04:12:00,
2013-05-08 21:17:00,56.5,31.1,-100.00,North,-999,0.0,0.0,38,0.00,,,-99.99,FreeWX-Wi 1.01,2013-05-09 04:17:00,
2013-05-08 21:22:00,56.3,31.6,-100.00,North,-999,0.0,0.0,39,0.00,,,-99.99,FreeWX-Wi 1.01,2013-05-09 04:22:00,
2013-05-08 21:27:00,56.1,31.5,-100.00,North,-999,0.0,0.0,39,0.00,,,-99.99,FreeWX-Wi 1.01,2013-05-09 04:27:00,
2013-05-08 21:32:00,55.9,31.3,-100.00,North,-999,0.0,0.0,39,0.00,,,-99.99,FreeWX-Wi 1.01,2013-05-09 04:32:00,
2013-05-08 21:37:00,55.6,31.1,-100.00,North,-999,0.0,0.0,39,0.00,,,-99.99,FreeWX-Wi 1.01,2013-05-09 04:37:00,
2013-05-08 21:42:00,55.4,31.5,-100.00,North,-999,0.0,0.0,40,0.00,,,-99.99,FreeWX-Wi 1.01,2013-05-09 04:42:00,
2013-05-08 21:47:00,54.9,30.9,-100.00,North,-999,0.0,0.0,40,0.00,,,-99.99,FreeWX-Wi 1.01,2013-05-09 04:47:00,
2013-05-08 21:52:00,54.7,31.5,-100.00,North,-999,0.0,0.0,41,0.00,,,-99.99,FreeWX-Wi 1.01,2013-05-09 04:52:00,
2013-05-08 21:57:00,54.5,31.3,-100.00,North,-999,0.0,0.0,41,0.00,,,-99.99,FreeWX-Wi 1.01,2013-05-09 04:57:00,
2013-05-08 22:02:00,54.5,31.3,-100.00,North,-999,0.0,0.0,41,0.00,,,-99.99,FreeWX-Wi 1.01,2013-05-09 05:02:00,
2013-05-08 22:07:00,54.5,31.8,-100.00,North,-999,0.0,0.0,42,0.00,,,-99.99,FreeWX-Wi 1.01,2013-05-09 05:07:00,
2013-05-08 22:12:00,54.3,31.6,-100.00,North,-999,0.0,0.0,42,0.00,,,-99.99,FreeWX-Wi 1.01,2013-05-09 05:12:00,
2013-05-08 22:17:00,54.0,31.5,-100.00,North,-999,0.0,0.0,42,0.00,,,-99.99,FreeWX-Wi 1.01,2013-05-09 05:17:00,
2013-05-08 22:22:00,54.0,32.0,-100.00,North,-999,0.0,0.0,43,0.00,,,-99.99,FreeWX-Wi 1.01,2013-05-09 05:22:00,
2013-05-08 22:27:00,53.8,31.8,-100.00,North,-999,0.0,0.0,43,0.00,,,-99.99,FreeWX-Wi 1.01,2013-05-09 05:27:00,
2013-05-08 22:33:00,53.6,31.6,-100.00,North,-999,0.0,0.0,43,0.00,,,-99.99,FreeWX-Wi 1.01,2013-05-09 05:33:00,
2013-05-08 22:38:00,53.8,32.4,-100.00,North,-999,0.0,0.0,44,0.00,,,-99.99,FreeWX-Wi 1.01,2013-05-09 05:38:00,
2013-05-08 22:43:00,53.6,32.2,-100.00,North,-999,0.0,0.0,44,0.00,,,-99.99,FreeWX-Wi 1.01,2013-05-09 05:43:00,
2013-05-08 22:48:00,53.4,32.0,-100.00,North,-999,0.0,0.0,44,0.00,,,-99.99,FreeWX-Wi 1.01,2013-05-09 05:48:00,
2013-05-08 22:53:00,53.4,32.5,-100.00,North,-999,0.0,0.0,45,0.00,,,-99.99,FreeWX-Wi 1.01,2013-05-09 05:53:00,
2013-05-08 22:58:00,53.1,32.4,-100.00,North,-999,0.0,0.0,45,0.00,,,-99.99,FreeWX-Wi 1.01,2013-05-09 05:58:00,
2013-05-08 23:03:00,53.1,32.4,-100.00,North,-999,0.0,0.0,45,0.00,,,-99.99,FreeWX-Wi 1.01,2013-05-09 06:03:00,
2013-05-08 23:08:00,52.7,32.0,-100.00,North,-999,0.0,0.0,45,0.00,,,-99.99,FreeWX-Wi 1.01,2013-05-09 06:08:00,
2013-05-08 23:13:00,52.7,32.5,-100.00,North,-999,0.0,0.0,46,0.00,,,-99.99,FreeWX-Wi 1.01,2013-05-09 06:13:00,
2013-05-08 23:18:00,52.7,32.5,-100.00,North,-999,0.0,0.0,46,0.00,,,-99.99,FreeWX-Wi 1.01,2013-05-09 06:18:00,
2013-05-08 23:23:00,52.7,32.5,-100.00,North,-999,0.0,0.0,46,0.00,,,-99.99,FreeWX-Wi 1.01,2013-05-09 06:23:00,
2013-05-08 23:29:00,52.7,32.5,-100.00,North,-999,0.0,0.0,46,0.00,,,-99.99,FreeWX-Wi 1.01,2013-05-09 06:29:00,
2013-05-08 23:34:00,52.3,32.7,-100.00,North,-999,0.0,0.0,47,0.00,,,-99.99,FreeWX-Wi 1.01,2013-05-09 06:34:00,
2013-05-08 23:39:00,52.3,32.7,-100.00,North,-999,0.0,0.0,47,0.00,,,-99.99,FreeWX-Wi 1.01,2013-05-09 06:39:00,
2013-05-08 23:44:00,52.3,32.7,-100.00,North,-999,0.0,0.0,47,0.00,,,-99.99,FreeWX-Wi 1.01,2013-05-09 06:44:00,
2013-05-08 23:49:00,52.0,32.4,-100.00,North,-999,0.0,0.0,47,0.00,,,-99.99,FreeWX-Wi 1.01,2013-05-09 06:49:00,
2013-05-08 23:54:00,51.8,32.2,-100.00,North,-999,0.0,0.0,47,0.00,,,-99.99,FreeWX-Wi 1.01,2013-05-09 06:54:00,
2013-05-08 23:59:00,51.6,32.5,-100.00,North,-999,0.0,0.0,48,0.00,,,-99.99,FreeWX-Wi 1.01,2013-05-09 06:59:00,